sat.trackr.live / text

‹ back to catalog

STARLINK-32704

NORAD 62826 · 2025-018W

PAYLOAD ACTIVE UNKNOWN

§ Identity

Operator
Country
US
Launch date
2025-01-24
Launch site
AFWTR
Launch vehicle
Mass (kg)
RCS (m²)

Purposes: comms

External: N2YO · Heavens-Above · Gunter

§ Orbital elements

Epoch: 2026-05-25T04:07:52.624704Z

Period
93.74 min
Inclination
53.1562°
Eccentricity
0.0003621
Mean motion
15.36131536 rev/d
Perigee alt
455.1 km
Apogee alt
460.0 km
Semi-major
6,835.7 km
B*
2.1940e-3
RAAN
313.2627°
Arg perigee
267.0572°
Mean anomaly
93.0017°
Rev number
7,489

§ Raw data

STARLINK-327041 62826U 25018W   26145.17213686  .00078795  00000+0  21940-2 0  99952 62826  53.1562 313.2627 0003621 267.0572  93.0017 15.36131536 74895

JSON: /api/v1/satellites/62826 · /tle

For live sub-satellite position, see the globe view (requires WebGL).

§ Visibility from observer

Set your observer location to see the next 7 days of passes ≥ 10°. The values pass through the URL so the page stays shareable.

No JS? Fill the form by hand. The geolocation button needs JavaScript.